Weather History for Florence, SC

Change the Weather History Date:

Friday, October 26, 2012

  Actual Average Record
Temperature  
Mean Temperature 67 °F 61 °F  
Max Temperature 74 °F 73 °F 87 °F (1974)
Min Temperature 59 °F 50 °F 29 °F (2013)
Degree Days  
Heating Degree Days 0 5  
Month to date heating degree days 57 77  
Since 1 July heating degree days 57 86  
Cooling Degree Days 2 1  
Month to date cooling degree days 93 79  
Year to date cooling degree days 2303 2035  
Growing Degree Days 16 (Base 50)    
Moisture  
Dew Point 59 °F    
Average Humidity 77    
Maximum Humidity 97    
Minimum Humidity 57    
Precipitation  
Precipitation 0.00 in 0.08 in 1.90 in (2007)
Month to date precipitation 1.76 2.67  
Year to date precipitation 35.87 36.82  
Sea Level Pressure  
Sea Level Pressure 29.97 in    
Wind  
Wind Speed 11 mph (NNE)    
Max Wind Speed 18 mph    
Max Gust Speed 23 mph    
Visibility 10 miles    
Events      
T = Trace of Precipitation, MM = Missing Value Source: NWS Daily Summary

Daily Weather History Graph

Daily Weather History Graph

Search for Another Location

Airport:

Trip Planner

Search our weather history database for the weather conditions in past years. The results will help you decide how hot, cold, wet, or windy it might be!

Date:

Astronomy

Oct. 26, 2012 Rise Set
Actual Time 7:33 AM EDT 6:31 PM EDT
Civil Twilight 7:08 AM EDT 6:56 PM EDT
Nautical Twilight 6:38 AM EDT 7:26 PM EDT
Astronomical Twilight 6:09 AM EDT 7:55 PM EDT
Moon 4:40 PM EDT (10/26) 4:35 AM EDT (10/26)
Length of Visible Light 11h 48m
Length of Day
10h 57m
Waxing Gibbous, 91% of the Moon is Illuminated
Oct 26
Waxing Gibbous
Oct 29
Full
Nov 6
Last Quarter
Nov 13
New
Nov 20
First Quarter

Hourly Weather History & Observations

Time (EDT) Temp. Dew Point Humidity Pressure Visibility Wind Dir Wind Speed Gust Speed Precip Events Conditions
12:53 AM 64.0 °F 60.1 °F 87% 30.05 in 10.0 mi ENE 4.6 mph - N/A   Clear
1:53 AM 62.1 °F 59.0 °F 90% 30.03 in 10.0 mi ENE 3.5 mph - N/A   Clear
2:53 AM 62.1 °F 59.0 °F 90% 30.02 in 10.0 mi NE 4.6 mph - N/A   Clear
3:53 AM 62.1 °F 59.0 °F 90% 30.01 in 10.0 mi NE 5.8 mph - N/A   Clear
4:53 AM 61.0 °F 59.0 °F 93% 30.01 in 9.0 mi NNE 6.9 mph - 0.01 in   Clear
5:53 AM 61.0 °F 57.9 °F 90% 30.01 in 9.0 mi NNE 6.9 mph - N/A   Clear
6:53 AM 61.0 °F 57.9 °F 90% 30.02 in 9.0 mi NNE 8.1 mph - N/A   Clear
7:53 AM 59.0 °F 55.9 °F 90% 30.02 in 10.0 mi NNE 8.1 mph - N/A   Clear
8:53 AM 61.0 °F 57.0 °F 87% 30.04 in 10.0 mi NNE 8.1 mph - N/A   Clear
9:53 AM 64.9 °F 57.9 °F 78% 30.04 in 10.0 mi NE 10.4 mph - N/A   Clear
10:53 AM 69.1 °F 59.0 °F 70% 30.03 in 10.0 mi NNE 10.4 mph - N/A   Clear
11:53 AM 73.0 °F 57.0 °F 57% 30.02 in 10.0 mi NNE 15.0 mph - N/A   Clear
12:53 PM 73.0 °F 57.0 °F 57% 29.99 in 10.0 mi NNE 15.0 mph - N/A   Clear
1:53 PM 73.0 °F 57.0 °F 57% 29.96 in 10.0 mi NNE 13.8 mph - N/A   Clear
2:53 PM 73.0 °F 59.0 °F 61% 29.94 in 10.0 mi NNE 13.8 mph - N/A   Clear
3:53 PM 73.0 °F 60.1 °F 64% 29.93 in 10.0 mi NNE 16.1 mph 21.9 mph N/A   Partly Cloudy
4:36 PM 73.4 °F 60.8 °F 65% 29.92 in 10.0 mi North 15.0 mph - N/A   Mostly Cloudy
4:53 PM 72.0 °F 61.0 °F 68% 29.91 in 10.0 mi NNE 13.8 mph - N/A   Scattered Clouds
5:53 PM 70.0 °F 61.0 °F 73% 29.90 in 10.0 mi North 12.7 mph - N/A   Scattered Clouds
6:53 PM 68.0 °F 61.0 °F 78% 29.91 in 10.0 mi NNE 12.7 mph - N/A   Clear
7:53 PM 68.0 °F 61.0 °F 78% 29.90 in 10.0 mi North 11.5 mph - N/A   Scattered Clouds
8:53 PM 66.9 °F 61.0 °F 81% 29.89 in 10.0 mi North 10.4 mph - N/A   Clear
9:53 PM 66.9 °F 62.1 °F 84% 29.88 in 10.0 mi NNE 12.7 mph - N/A   Clear
10:53 PM 68.0 °F 62.1 °F 81% 29.86 in 10.0 mi NNE 11.5 mph - N/A   Overcast
11:53 PM 69.1 °F 62.1 °F 78% 29.84 in 10.0 mi NNE 13.8 mph 20.7 mph N/A   Overcast